Theta_e
340 337 335 335 336 337 337 337 337 336 335 335 333 332 332 332 332 332 332 332 332 333 335 335 336 339 340 340 336 335 338 335 336 334 336 336 335 335 335 334 334 334 334
342 341 338 337 337 337 337 338 337 337 337 335 335 334 333 333 332 332 332 332 332 332 333 333 333 336 339 341 340 337 337 334 334 335 335 336 335 335 334 333 332 333 333
342 342 340 338 337 337 337 338 337 337 337 336 335 334 334 333 333 333 332 332 332 333 333 333 333 334 337 340 340 339 337 333 333 333 335 334 333 333 332 332 333 333 333
336 337 338 337 338 337 337 337 337 338 336 336 335 334 333 333 333 333 332 332 332 333 333 333 333 334 335 337 339 338 338 336 334 333 335 335 332 332 331 331 332 332 332
340 337 337 336 335 336 336 336 336 336 337 338 336 334 333 333 333 333 333 332 333 334 334 334 335 335 336 338 337 338 338 339 334 334 337 336 336 330 331 332 332 332 332
337 339 339 337 336 336 335 335 334 333 333 334 335 334 332 332 332 333 333 332 333 333 334 334 333 333 329 332 338 337 338 338 336 336 335 335 334 332 332 331 332 331 331
340 340 340 340 339 338 337 335 334 333 333 333 332 332 331 331 332 333 333 333 333 334 335 335 335 333 332 331 335 335 334 337 335 335 334 335 335 334 333 332 332 331 330
341 343 342 341 340 338 337 337 338 337 335 335 335 333 332 332 333 334 334 335 336 337 336 334 334 333 333 333 335 336 336 335 334 336 335 333 334 333 332 332 329 329 329
341 342 342 340 343 343 345 345 342 342 341 341 340 337 335 334 334 335 336 336 336 337 333 331 332 333 335 333 331 335 334 335 334 332 331 331 329 330 329 326 325 322 320
339 338 338 338 339 342 345 346 346 344 343 342 341 340 338 337 337 336 335 335 331 328 331 333 333 333 334 334 334 333 332 332 331 329 326 320 317 315 314 316 316 316 316
339 338 338 337 338 340 342 343 344 345 343 343 342 341 340 338 336 333 333 331 332 335 335 335 334 332 331 331 330 326 326 322 319 315 315 314 315 315 315 314 312 311 312
338 339 340 337 335 332 334 336 339 340 340 341 340 339 340 339 338 337 334 335 335 335 329 328 329 326 323 323 322 322 320 318 317 316 316 315 314 314 313 312 313 313 312
338 339 337 337 336 331 332 331 332 333 334 335 335 334 334 335 334 334 333 331 326 324 323 323 323 323 323 322 319 319 317 317 317 317 316 316 315 315 315 314 314 313 313
336 337 337 337 336 333 333 330 329 329 333 332 331 332 333 332 333 331 327 324 323 322 322 321 320 320 319 319 319 318 318 317 316 316 315 315 314 314 313 313 314 314 314
333 334 336 337 335 331 330 329 329 331 330 332 331 330 331 329 327 326 324 323 323 322 320 320 319 319 318 318 317 316 314 313 312 311 310 309 310 311 312 313 313 311 312
331 331 334 334 334 330 329 330 332 332 332 330 330 328 328 325 324 322 320 320 319 319 318 318 317 317 316 313 312 311 308 305 304 304 307 308 307 308 307 306 305 304 304
331 330 332 333 331 329 330 330 331 331 331 328 326 321 320 320 320 320 319 319 319 318 317 316 314 313 312 308 304 302 302 301 302 303 304 306 305 305 305 304 304 304 304
329 331 331 331 329 331 330 330 330 330 328 324 322 321 321 322 321 320 320 319 317 316 315 313 311 310 304 302 301 302 302 301 301 301 302 303 304 304 304 304 305 305 304
328 330 330 329 328 329 328 327 327 326 325 324 324 323 322 321 320 318 317 317 316 314 312 309 305 302 302 302 302 302 303 302 301 301 301 301 301 301 302 303 303 303 303
330 330 328 328 325 324 322 320 320 320 320 321 320 320 319 317 317 317 317 316 314 310 308 305 302 302 302 302 302 303 304 302 303 302 301 301 301 301 301 302 303 303 302
328 328 327 326 324 322 320 321 322 321 321 320 318 315 314 313 314 314 315 314 311 309 307 302 302 302 303 303 304 303 304 304 303 303 303 302 302 301 301 301 301 300 301
326 326 325 323 322 322 322 322 322 320 319 317 315 314 313 312 311 313 312 311 308 308 304 302 302 302 303 303 304 303 303 303 303 303 303 302 302 302 301 301 300 301 304
323 322 322 321 321 321 320 320 319 316 315 314 315 314 311 310 310 310 310 308 308 307 303 303 303 303 303 303 303 304 303 303 303 303 303 302 302 302 302 300 300 302 303
318 317 317 320 320 318 316 317 316 315 315 314 315 313 310 310 310 310 309 308 308 307 304 305 305 303 304 304 305 304 304 303 303 303 303 303 302 302 301 302 301 302 303
320 320 319 318 318 318 317 317 317 316 314 315 315 312 310 309 307 308 309 309 308 307 307 307 306 305 306 306 306 305 305 304 304 303 303 304 303 303 302 302 301 302 303
319 319 318 318 318 317 315 316 315 316 316 316 315 312 309 308 308 307 307 307 308 307 307 305 304 304 307 306 306 306 306 306 305 304 303 303 303 302 301 301 301 302 303
Wind_Speed
16 21 24 26 28 32 33 32 32 31 32 33 33 33 32 30 30 27 26 26 24 25 25 24 23 23 23 20 21 23 23 18 24 26 20 22 22 22 22 22 24 24 24
14 14 19 25 28 29 30 33 34 34 35 36 37 36 36 34 33 31 29 29 28 27 28 27 25 25 26 26 27 27 27 21 23 32 25 19 19 21 23 26 26 27 25
21 19 23 24 25 29 32 33 33 33 34 36 38 40 42 41 38 37 34 33 31 29 30 29 29 28 29 31 32 32 26 22 22 29 24 10 14 14 14 16 20 23 24
17 17 18 24 26 27 28 31 34 36 34 35 38 40 43 44 40 39 37 35 33 31 29 30 32 33 33 35 35 34 34 32 29 28 33 33 23 18 19 23 15 14 15
11 7 9 13 19 22 24 24 27 34 37 40 38 40 41 44 43 41 39 36 31 31 29 29 32 31 33 38 39 36 40 31 27 26 30 27 32 38 33 26 23 14 12
16 12 6 5 10 14 17 19 20 21 23 28 33 38 40 40 42 40 39 37 36 31 30 28 27 27 28 35 40 36 37 36 28 26 28 31 32 33 35 32 26 23 17
19 19 19 15 9 7 7 9 13 15 16 16 18 22 28 31 33 34 30 29 33 34 30 28 25 24 35 34 40 34 41 26 19 21 27 33 29 34 32 34 26 18 13
19 22 22 20 20 17 12 8 4 2 5 8 9 13 17 21 21 22 23 22 18 18 18 18 25 27 19 25 31 33 17 14 15 17 17 9 19 27 26 18 12 8 9
20 20 22 22 22 20 18 18 14 11 9 7 5 3 5 10 14 16 15 8 8 15 24 23 17 14 15 17 21 15 13 10 6 8 4 1 4 4 5 7 8 6 3
17 17 21 23 22 21 18 17 16 16 16 12 10 6 2 3 6 6 7 11 11 14 12 9 8 7 7 10 7 2 3 2 3 8 10 14 12 13 13 13 11 8 4
15 17 20 22 21 20 20 19 18 15 15 11 8 6 6 8 8 3 8 8 9 7 7 5 6 9 10 15 17 20 20 19 17 16 13 13 11 9 7 5 3 2 6
12 15 16 19 19 23 20 20 18 15 15 11 5 3 4 8 12 10 2 1 6 9 14 14 16 19 17 14 17 15 14 9 10 8 7 7 5 4 3 3 5 7 8
12 12 16 17 17 16 18 16 13 12 10 8 9 11 13 13 12 10 9 14 14 14 16 16 15 14 14 13 15 10 10 9 7 6 4 3 3 4 5 6 8 9 9
10 9 10 9 9 10 10 11 11 12 11 9 10 13 15 13 13 17 17 16 16 16 14 14 12 13 12 11 10 7 7 6 7 8 9 9 9 9 9 7 7 8 7
7 6 5 3 2 4 5 6 6 8 9 8 11 15 15 16 15 13 16 17 15 15 15 14 12 10 8 9 7 7 8 8 9 10 9 9 9 8 7 6 8 9 9
6 6 4 3 2 3 4 5 6 6 5 7 12 16 13 13 17 17 16 15 16 16 10 8 7 5 8 9 9 9 9 9 8 8 9 8 8 10 10 11 11 12 13
8 8 5 2 1 2 5 5 5 6 9 13 15 17 17 17 16 15 14 12 12 10 10 9 8 9 10 11 10 10 11 11 12 10 9 9 9 9 10 11 12 12 13
8 6 4 1 3 5 6 7 8 10 14 16 15 14 15 13 13 12 11 10 9 8 9 9 10 8 12 12 13 14 16 16 15 12 10 9 9 9 9 10 11 11 12
5 2 2 3 6 9 10 10 9 12 11 10 10 10 12 14 11 8 7 7 6 8 9 10 11 12 15 15 15 16 17 19 19 17 15 14 13 13 12 12 13 14 15
6 2 3 6 7 6 6 9 11 11 13 13 16 15 13 10 7 5 4 5 7 9 10 12 14 14 15 15 14 14 13 17 14 14 16 17 17 16 16 16 15 17 22
4 7 4 4 5 7 10 12 12 17 16 17 18 14 8 2 2 1 4 5 6 6 9 10 12 12 12 12 12 10 9 9 10 10 11 15 16 17 17 19 17 20 21
6 8 8 10 7 7 11 12 16 14 14 17 12 7 5 4 3 2 6 7 5 8 9 9 9 8 8 8 10 9 8 8 7 9 10 12 15 17 18 16 18 20 16
15 16 15 14 13 16 13 15 15 13 16 13 8 8 6 6 7 6 6 6 7 6 7 7 6 5 6 6 7 6 6 6 7 8 10 12 13 16 15 18 18 17 14
16 16 15 14 12 11 11 12 12 11 10 5 7 10 7 6 5 6 7 6 6 5 4 3 3 4 7 8 7 5 4 5 7 9 11 10 10 15 17 15 15 13 14
12 12 13 13 11 9 8 8 7 7 7 5 7 10 8 8 5 6 7 7 6 5 3 2 1 1 4 7 8 6 4 5 7 8 9 7 9 13 15 15 13 12 14
13 12 11 11 10 8 6 3 1 3 5 4 10 11 9 9 7 8 6 4 4 2 1 2 3 5 6 9 10 11 8 6 8 8 7 7 10 13 15 14 13 12 15
Wind_Direction
231 237 233 234 241 244 246 247 248 247 248 246 245 244 245 244 243 244 247 247 249 250 251 254 256 252 252 256 256 252 258 264 265 268 262 258 259 261 262 261 262 261 249
265 250 249 250 247 247 250 251 254 255 255 253 252 253 254 252 252 253 255 254 253 252 252 252 256 257 254 253 254 251 251 265 255 260 265 265 262 263 268 263 258 251 253
275 266 265 264 263 260 260 257 259 259 260 258 256 255 254 253 255 255 257 256 256 257 254 255 257 259 255 254 257 261 249 260 276 273 255 240 246 247 268 268 257 254 253
289 278 271 272 270 276 277 270 264 260 259 258 254 255 256 257 261 260 261 260 259 257 254 256 257 261 262 257 258 266 263 254 272 269 257 249 250 251 262 256 264 254 254
10 319 291 274 265 263 269 272 270 266 261 259 261 261 257 257 259 260 260 264 259 254 255 254 256 260 271 275 270 267 268 266 269 267 265 273 263 242 248 244 237 247 263
27 31 17 295 278 280 278 271 267 269 268 265 264 264 264 260 257 258 261 260 261 260 256 254 257 257 267 273 274 274 272 267 258 262 270 274 256 238 232 231 235 233 250
37 44 48 47 39 12 343 307 286 280 272 272 271 270 268 265 262 261 265 271 269 268 269 269 273 280 281 263 267 277 293 255 273 281 277 269 258 252 240 234 221 221 235
45 47 49 46 52 51 41 26 359 298 251 254 269 271 266 266 265 264 271 279 290 271 251 262 286 300 282 280 275 266 269 299 302 282 246 252 255 248 234 202 208 196 218
40 44 46 47 51 54 56 56 65 79 76 60 37 335 283 269 272 269 276 283 259 275 298 302 307 293 262 273 288 286 294 300 270 290 297 353 9 36 66 93 86 65 22
44 43 46 48 50 49 55 59 62 69 67 65 67 71 109 217 236 231 260 282 303 314 324 340 333 332 324 301 284 50 44 327 108 69 69 69 60 51 44 45 45 40 19
39 44 48 48 54 59 56 59 58 62 55 55 66 98 147 181 188 241 300 295 318 6 6 7 84 75 83 82 85 78 79 77 74 73 63 54 51 50 54 35 16 318 274
45 41 42 46 59 66 62 63 63 64 66 64 85 122 194 238 264 283 291 81 43 70 90 84 88 90 89 86 82 83 79 75 72 62 50 36 36 11 344 321 310 303 308
42 38 38 39 56 61 51 50 57 61 63 70 76 86 86 91 91 87 86 99 98 96 100 99 93 94 90 93 85 79 82 85 77 69 57 26 2 336 316 311 301 303 302
37 33 28 43 53 45 36 42 58 68 68 78 77 79 83 82 94 107 104 102 101 101 104 94 83 89 86 81 77 69 59 42 23 11 358 352 343 339 333 333 333 335 338
38 29 24 28 43 20 49 60 82 93 78 76 83 86 101 111 109 105 104 104 101 94 86 84 85 85 80 65 48 28 13 3 354 351 352 353 354 347 345 351 335 338 340
19 12 4 2 357 37 60 88 99 110 108 109 115 113 115 116 111 107 101 97 95 93 87 79 72 63 66 41 19 12 12 15 22 32 37 30 17 16 10 5 358 350 346
19 5 4 31 47 109 110 114 119 119 121 114 119 113 113 114 111 107 107 99 98 94 88 86 78 65 50 35 33 38 44 42 40 33 23 22 6 357 351 348 348 346 341
26 20 21 89 144 132 121 119 117 128 132 124 117 117 116 111 112 117 110 105 100 95 93 81 63 55 70 59 59 56 54 45 38 31 28 27 18 7 359 356 354 353 351
347 309 347 46 134 131 134 129 137 129 126 118 102 100 107 114 109 106 109 111 109 108 104 86 86 80 83 77 68 61 53 48 47 49 48 46 38 32 24 20 10 1 350
22 164 216 167 171 173 171 159 141 132 126 115 109 105 101 99 102 97 109 113 113 104 90 95 92 89 85 75 62 55 50 46 47 47 46 41 35 27 20 9 4 356 350
65 92 101 142 155 150 160 148 141 124 116 113 109 95 81 83 79 128 128 120 122 104 105 97 96 89 82 71 58 50 49 49 45 43 40 33 27 23 15 8 1 354 349
96 84 93 102 112 152 162 138 118 116 138 120 105 129 125 112 94 115 134 132 126 126 109 100 94 83 72 61 50 45 45 45 40 31 26 17 13 7 6 4 359 354 5
107 106 105 106 105 109 114 130 119 106 94 81 128 132 116 111 105 116 131 141 138 131 113 98 81 62 46 31 23 20 33 43 32 16 1 352 353 355 357 356 358 4 2
108 105 102 103 114 106 105 117 128 123 138 159 150 144 130 107 113 130 132 144 142 141 138 119 94 44 20 8 354 345 341 346 355 348 342 346 348 353 357 358 357 0 0
118 118 109 104 102 104 106 114 131 161 164 195 174 153 131 84 80 136 138 146 143 153 170 215 283 4 352 356 2 1 4 341 330 324 333 351 351 351 350 351 357 0 6
126 120 108 104 93 91 96 130 130 241 240 217 191 162 123 82 92 102 127 139 167 182 237 276 263 273 308 339 342 336 325 318 314 312 333 347 354 353 353 358 359 358 7